Time,TemperatureF,DewpointF,PressureIn,WindDirection,WindDirectionDegrees,WindSpeedMPH,WindSpeedGustMPH,Humidity,HourlyPrecipIn,Conditions,Clouds,dailyrainin,SoftwareType,DateUTC
2013-02-02 00:02:00,27.0,26.0,28.83,WSW,238,0.0,-999.0,94,18.79,,,-99.99,,2013-02-02 06:02:00,
2013-02-02 00:12:00,27.0,26.0,28.83,WSW,238,0.0,-999.0,94,18.79,,,-99.99,,2013-02-02 06:12:00,
2013-02-02 00:21:00,27.0,26.0,28.84,WNW,301,3.0,-999.0,95,18.79,,,-99.99,,2013-02-02 06:21:00,
2013-02-02 00:32:00,27.0,26.0,28.84,WNW,301,3.0,-999.0,95,18.79,,,-99.99,,2013-02-02 06:32:00,
2013-02-02 00:42:00,27.0,26.0,28.84,WNW,301,3.0,-999.0,95,18.79,,,-99.99,,2013-02-02 06:42:00,
2013-02-02 00:52:00,27.0,26.0,28.84,WNW,283,0.0,-999.0,95,18.79,,,-99.99,,2013-02-02 06:52:00,
2013-02-02 01:02:00,27.0,26.0,28.84,WNW,283,0.0,-999.0,95,18.79,,,-99.99,,2013-02-02 07:02:00,
2013-02-02 01:11:00,28.0,27.0,28.84,West,278,0.0,-999.0,96,18.79,,,-99.99,,2013-02-02 07:11:00,
2013-02-02 01:21:00,28.0,27.0,28.84,West,278,0.0,-999.0,96,18.79,,,-99.99,,2013-02-02 07:21:00,
2013-02-02 01:32:00,28.0,27.0,28.84,West,278,0.0,-999.0,96,18.79,,,-99.99,,2013-02-02 07:32:00,
2013-02-02 01:42:00,28.0,27.0,28.84,West,278,0.0,-999.0,96,18.79,,,-99.99,,2013-02-02 07:42:00,
2013-02-02 01:52:00,27.0,26.0,28.85,West,278,0.0,-999.0,96,18.79,,,-99.99,,2013-02-02 07:52:00,
2013-02-02 02:01:00,27.0,26.0,28.85,West,278,0.0,-999.0,96,18.79,,,-99.99,,2013-02-02 08:01:00,
2013-02-02 02:11:00,28.0,27.0,28.85,NW,325,4.0,-999.0,97,18.79,,,-99.99,,2013-02-02 08:11:00,
2013-02-02 02:21:00,28.0,27.0,28.85,NW,325,4.0,-999.0,97,18.79,,,-99.99,,2013-02-02 08:21:00,
2013-02-02 02:32:00,28.0,27.0,28.85,NW,325,4.0,-999.0,97,18.79,,,-99.99,,2013-02-02 08:32:00,
2013-02-02 02:42:00,28.0,27.0,28.85,NW,325,4.0,-999.0,97,18.79,,,-99.99,,2013-02-02 08:42:00,
2013-02-02 02:53:00,28.0,27.0,28.86,North,356,0.0,-999.0,96,18.79,,,-99.99,,2013-02-02 08:53:00,
2013-02-02 03:01:00,28.0,27.0,28.86,North,356,0.0,-999.0,96,18.79,,,-99.99,,2013-02-02 09:01:00,
2013-02-02 03:11:00,28.0,27.0,28.86,North,356,0.0,-999.0,96,18.79,,,-99.99,,2013-02-02 09:11:00,
2013-02-02 03:22:00,27.0,26.0,28.88,North,356,0.0,-999.0,96,18.79,,,-99.99,,2013-02-02 09:22:00,
2013-02-02 03:32:00,27.0,26.0,28.88,North,356,0.0,-999.0,96,18.79,,,-99.99,,2013-02-02 09:32:00,
2013-02-02 03:42:00,27.0,26.0,28.88,North,356,0.0,-999.0,96,18.79,,,-99.99,,2013-02-02 09:42:00,
2013-02-02 03:52:00,28.0,27.0,28.88,NW,305,0.0,-999.0,97,18.79,,,-99.99,,2013-02-02 09:52:00,
2013-02-02 04:01:00,28.0,27.0,28.88,NW,305,0.0,-999.0,97,18.79,,,-99.99,,2013-02-02 10:01:00,
2013-02-02 04:11:00,28.0,27.0,28.88,NNW,332,0.0,-999.0,96,18.79,,,-99.99,,2013-02-02 10:11:00,
2013-02-02 04:21:00,28.0,27.0,28.88,NNW,332,0.0,-999.0,96,18.79,,,-99.99,,2013-02-02 10:21:00,
2013-02-02 04:32:00,28.0,27.0,28.88,NNW,332,0.0,-999.0,96,18.79,,,-99.99,,2013-02-02 10:32:00,
2013-02-02 04:42:00,28.0,27.0,28.88,NNW,332,0.0,-999.0,96,18.79,,,-99.99,,2013-02-02 10:42:00,
2013-02-02 04:52:00,28.0,27.0,28.89,NW,316,3.0,-999.0,96,18.79,,,-99.99,,2013-02-02 10:52:00,
2013-02-02 05:01:00,28.0,27.0,28.89,NW,316,3.0,-999.0,96,18.79,,,-99.99,,2013-02-02 11:01:00,
2013-02-02 05:11:00,28.0,27.0,28.89,NNW,328,5.0,-999.0,95,18.79,,,-99.99,,2013-02-02 11:11:00,
2013-02-02 05:21:00,28.0,27.0,28.89,NNW,328,5.0,-999.0,95,18.79,,,-99.99,,2013-02-02 11:21:00,
2013-02-02 05:32:00,28.0,27.0,28.89,NNW,328,5.0,-999.0,95,18.79,,,-99.99,,2013-02-02 11:32:00,
2013-02-02 05:42:00,28.0,27.0,28.89,NNW,328,5.0,-999.0,95,18.79,,,-99.99,,2013-02-02 11:42:00,
2013-02-02 05:52:00,27.0,26.0,28.90,NNW,340,7.0,-999.0,96,18.79,,,-99.99,,2013-02-02 11:52:00,
2013-02-02 06:01:00,27.0,26.0,28.90,NNW,340,7.0,-999.0,96,18.79,,,-99.99,,2013-02-02 12:01:00,
2013-02-02 06:11:00,27.0,26.0,28.90,NNW,340,7.0,-999.0,96,18.79,,,-99.99,,2013-02-02 12:11:00,
2013-02-02 06:22:00,27.0,26.0,28.92,NNE,14,9.0,-999.0,95,18.79,,,-99.99,,2013-02-02 12:22:00,
2013-02-02 06:32:00,27.0,26.0,28.92,NNE,14,9.0,-999.0,95,18.79,,,-99.99,,2013-02-02 12:32:00,
2013-02-02 06:42:00,27.0,26.0,28.92,NNE,14,9.0,-999.0,95,18.79,,,-99.99,,2013-02-02 12:42:00,
2013-02-02 06:52:00,27.0,26.0,28.91,North,11,4.0,-999.0,95,18.79,,,-99.99,,2013-02-02 12:52:00,
2013-02-02 07:02:00,27.0,26.0,28.91,North,11,4.0,-999.0,95,18.79,,,-99.99,,2013-02-02 13:02:00,
2013-02-02 07:11:00,27.0,26.0,28.91,North,11,4.0,-999.0,95,18.79,,,-99.99,,2013-02-02 13:11:00,
2013-02-02 07:21:00,26.0,25.0,28.93,ENE,58,3.0,-999.0,96,18.79,,,-99.99,,2013-02-02 13:21:00,
2013-02-02 07:33:00,26.0,25.0,28.93,ENE,58,3.0,-999.0,96,18.79,,,-99.99,,2013-02-02 13:33:00,
2013-02-02 07:42:00,26.0,25.0,28.93,ENE,58,3.0,-999.0,96,18.79,,,-99.99,,2013-02-02 13:42:00,
2013-02-02 07:52:00,26.0,25.0,28.93,NNE,25,8.0,-999.0,96,18.79,,,-99.99,,2013-02-02 13:52:00,
2013-02-02 08:02:00,26.0,25.0,28.93,NNE,25,8.0,-999.0,96,18.79,,,-99.99,,2013-02-02 14:02:00,
2013-02-02 08:11:00,26.0,25.0,28.93,NNE,25,8.0,-999.0,96,18.79,,,-99.99,,2013-02-02 14:11:00,
2013-02-02 08:22:00,25.0,24.0,28.94,NNW,335,4.0,-999.0,95,18.79,,,-99.99,,2013-02-02 14:22:00,
2013-02-02 08:33:00,25.0,24.0,28.94,NNW,335,4.0,-999.0,95,18.79,,,-99.99,,2013-02-02 14:33:00,
2013-02-02 08:42:00,25.0,24.0,28.94,NNW,335,4.0,-999.0,95,18.79,,,-99.99,,2013-02-02 14:42:00,
2013-02-02 08:52:00,25.0,24.0,28.94,North,359,4.0,-999.0,95,18.79,,,-99.99,,2013-02-02 14:52:00,
2013-02-02 09:03:00,25.0,24.0,28.94,North,359,4.0,-999.0,95,18.79,,,-99.99,,2013-02-02 15:03:00,
2013-02-02 09:12:00,25.0,24.0,28.94,North,359,4.0,-999.0,95,18.79,,,-99.99,,2013-02-02 15:12:00,
2013-02-02 09:22:00,25.0,24.0,28.96,North,353,6.0,-999.0,95,18.79,,,-99.99,,2013-02-02 15:22:00,
2013-02-02 09:33:00,25.0,24.0,28.96,North,353,6.0,-999.0,95,18.79,,,-99.99,,2013-02-02 15:33:00,
2013-02-02 09:42:00,25.0,24.0,28.96,North,353,6.0,-999.0,95,18.79,,,-99.99,,2013-02-02 15:42:00,
2013-02-02 09:52:00,26.0,25.0,28.96,NNW,328,5.0,-999.0,94,18.79,,,-99.99,,2013-02-02 15:52:00,
2013-02-02 10:02:00,26.0,25.0,28.96,NNW,328,5.0,-999.0,94,18.79,,,-99.99,,2013-02-02 16:02:00,
2013-02-02 10:11:00,26.0,25.0,28.96,NNW,328,5.0,-999.0,94,18.79,,,-99.99,,2013-02-02 16:11:00,
2013-02-02 10:22:00,26.0,25.0,28.95,NNE,17,3.0,-999.0,94,18.79,,,-99.99,,2013-02-02 16:22:00,
2013-02-02 10:32:00,26.0,25.0,28.95,NNE,17,3.0,-999.0,94,18.79,,,-99.99,,2013-02-02 16:32:00,
2013-02-02 10:42:00,26.0,25.0,28.95,NNE,17,3.0,-999.0,94,18.79,,,-99.99,,2013-02-02 16:42:00,
2013-02-02 10:52:00,26.0,25.0,28.95,NE,42,0.0,-999.0,94,18.79,,,-99.99,,2013-02-02 16:52:00,
2013-02-02 11:02:00,26.0,25.0,28.95,NE,42,0.0,-999.0,94,18.79,,,-99.99,,2013-02-02 17:02:00,
2013-02-02 11:11:00,26.0,25.0,28.95,NE,42,0.0,-999.0,94,18.79,,,-99.99,,2013-02-02 17:11:00,
2013-02-02 11:22:00,27.0,25.0,28.95,NW,325,0.0,-999.0,93,18.79,,,-99.99,,2013-02-02 17:22:00,
2013-02-02 11:33:00,27.0,25.0,28.95,NW,325,0.0,-999.0,93,18.79,,,-99.99,,2013-02-02 17:33:00,
2013-02-02 11:42:00,27.0,25.0,28.95,NW,325,0.0,-999.0,93,18.79,,,-99.99,,2013-02-02 17:42:00,
2013-02-02 11:52:00,27.0,25.0,28.96,NW,325,0.0,-999.0,93,18.79,,,-99.99,,2013-02-02 17:52:00,
2013-02-02 12:02:00,27.0,25.0,28.96,NW,325,0.0,-999.0,93,18.79,,,-99.99,,2013-02-02 18:02:00,
2013-02-02 12:12:00,27.0,25.0,28.96,NW,325,0.0,-999.0,93,18.79,,,-99.99,,2013-02-02 18:12:00,
2013-02-02 12:22:00,27.0,25.0,28.95,NW,325,0.0,-999.0,93,18.79,,,-99.99,,2013-02-02 18:22:00,
2013-02-02 12:32:00,27.0,25.0,28.95,NW,325,0.0,-999.0,93,18.79,,,-99.99,,2013-02-02 18:32:00,
2013-02-02 12:42:00,27.0,25.0,28.95,NW,325,0.0,-999.0,93,18.79,,,-99.99,,2013-02-02 18:42:00,
2013-02-02 12:52:00,28.0,26.0,28.94,NW,325,0.0,-999.0,93,18.79,,,-99.99,,2013-02-02 18:52:00,
2013-02-02 13:02:00,28.0,26.0,28.94,NW,325,0.0,-999.0,93,18.79,,,-99.99,,2013-02-02 19:02:00,
2013-02-02 13:12:00,27.0,26.0,28.91,SSW,197,8.0,-999.0,94,18.79,,,-99.99,,2013-02-02 19:12:00,
2013-02-02 13:21:00,27.0,26.0,28.91,SSW,197,8.0,-999.0,94,18.79,,,-99.99,,2013-02-02 19:21:00,
2013-02-02 13:32:00,27.0,26.0,28.91,SSW,197,8.0,-999.0,94,18.79,,,-99.99,,2013-02-02 19:32:00,
2013-02-02 13:42:00,27.0,26.0,28.91,SSW,197,8.0,-999.0,94,18.79,,,-99.99,,2013-02-02 19:42:00,
2013-02-02 13:52:00,28.0,27.0,28.90,SW,225,7.0,-999.0,94,18.79,,,-99.99,,2013-02-02 19:52:00,
2013-02-02 14:01:00,28.0,27.0,28.90,SW,225,7.0,-999.0,94,18.79,,,-99.99,,2013-02-02 20:01:00,
2013-02-02 14:11:00,28.0,27.0,28.90,SW,225,7.0,-999.0,94,18.79,,,-99.99,,2013-02-02 20:11:00,
2013-02-02 14:21:00,30.0,28.0,28.90,South,188,5.0,-999.0,94,18.79,,,-99.99,,2013-02-02 20:21:00,
2013-02-02 14:32:00,30.0,28.0,28.90,South,188,5.0,-999.0,94,18.79,,,-99.99,,2013-02-02 20:32:00,
2013-02-02 14:42:00,30.0,28.0,28.90,South,188,5.0,-999.0,94,18.79,,,-99.99,,2013-02-02 20:42:00,
2013-02-02 14:52:00,30.0,28.0,28.89,SSW,205,6.0,-999.0,94,18.79,,,-99.99,,2013-02-02 20:52:00,
2013-02-02 15:02:00,30.0,28.0,28.89,SSW,205,6.0,-999.0,94,18.79,,,-99.99,,2013-02-02 21:02:00,
2013-02-02 15:11:00,30.0,28.0,28.89,SSW,205,6.0,-999.0,94,18.79,,,-99.99,,2013-02-02 21:11:00,
2013-02-02 15:21:00,32.0,30.0,28.87,SSW,208,5.0,-999.0,94,18.79,,,-99.99,,2013-02-02 21:21:00,
2013-02-02 15:32:00,32.0,30.0,28.87,SSW,208,5.0,-999.0,94,18.79,,,-99.99,,2013-02-02 21:32:00,
2013-02-02 15:42:00,32.0,30.0,28.87,SSW,208,5.0,-999.0,94,18.79,,,-99.99,,2013-02-02 21:42:00,
2013-02-02 15:52:00,32.0,31.0,28.85,SSW,193,7.0,-999.0,95,18.79,,,-99.99,,2013-02-02 21:52:00,
2013-02-02 16:02:00,32.0,31.0,28.85,SSW,193,7.0,-999.0,95,18.79,,,-99.99,,2013-02-02 22:02:00,
2013-02-02 16:12:00,32.0,31.0,28.85,SSW,193,7.0,-999.0,95,18.79,,,-99.99,,2013-02-02 22:12:00,
2013-02-02 16:21:00,33.0,32.0,28.83,SW,225,7.0,-999.0,95,18.79,,,-99.99,,2013-02-02 22:21:00,
2013-02-02 16:32:00,33.0,32.0,28.83,SW,225,7.0,-999.0,95,18.79,,,-99.99,,2013-02-02 22:32:00,
2013-02-02 16:42:00,33.0,32.0,28.83,SW,225,7.0,-999.0,95,18.79,,,-99.99,,2013-02-02 22:42:00,
2013-02-02 16:52:00,34.0,33.0,28.82,SSW,193,8.0,-999.0,95,18.79,,,-99.99,,2013-02-02 22:52:00,
2013-02-02 17:01:00,34.0,33.0,28.82,SSW,193,8.0,-999.0,95,18.79,,,-99.99,,2013-02-02 23:01:00,
2013-02-02 17:11:00,34.0,33.0,28.82,SSW,193,8.0,-999.0,95,18.79,,,-99.99,,2013-02-02 23:11:00,
2013-02-02 17:21:00,34.0,33.0,28.81,SSE,162,3.0,-999.0,95,18.79,,,-99.99,,2013-02-02 23:21:00,
2013-02-02 17:32:00,34.0,33.0,28.81,SSE,162,3.0,-999.0,95,18.79,,,-99.99,,2013-02-02 23:32:00,
2013-02-02 17:42:00,34.0,33.0,28.81,SSE,162,3.0,-999.0,95,18.79,,,-99.99,,2013-02-02 23:42:00,
2013-02-02 17:52:00,34.0,33.0,28.82,South,177,3.0,-999.0,95,18.79,,,-99.99,,2013-02-02 23:52:00,
2013-02-02 18:00:00,34.0,33.0,28.81,South,181,6.0,-999.0,96,18.79,,,-99.99,,2013-02-03 00:00:00,
2013-02-02 18:01:00,34.0,33.0,28.82,South,177,3.0,-999.0,95,18.79,,,-99.99,,2013-02-03 00:01:00,
2013-02-02 18:11:00,34.0,33.0,28.82,South,177,3.0,-999.0,95,18.79,,,-99.99,,2013-02-03 00:11:00,
2013-02-02 18:21:00,34.0,33.0,28.81,South,181,6.0,-999.0,96,18.79,,,-99.99,,2013-02-03 00:21:00,
2013-02-02 18:32:00,34.0,33.0,28.81,South,181,6.0,-999.0,96,18.79,,,-99.99,,2013-02-03 00:32:00,
2013-02-02 18:42:00,34.0,33.0,28.81,South,181,6.0,-999.0,96,18.79,,,-99.99,,2013-02-03 00:42:00,
2013-02-02 18:52:00,34.0,33.0,28.81,South,181,6.0,-999.0,96,18.79,,,-99.99,,2013-02-03 00:52:00,
2013-02-02 19:11:00,34.0,33.0,28.85,WNW,295,0.0,-999.0,97,18.79,,,-99.99,,2013-02-03 01:11:00,
2013-02-02 19:21:00,34.0,33.0,28.85,WNW,295,0.0,-999.0,97,18.79,,,-99.99,,2013-02-03 01:21:00,
2013-02-02 19:32:00,34.0,33.0,28.85,WNW,295,0.0,-999.0,97,18.79,,,-99.99,,2013-02-03 01:32:00,
2013-02-02 19:42:00,34.0,33.0,28.85,WNW,295,0.0,-999.0,97,18.79,,,-99.99,,2013-02-03 01:42:00,
2013-02-02 19:52:00,33.0,32.0,28.84,WNW,295,0.0,-999.0,98,18.79,,,-99.99,,2013-02-03 01:52:00,
2013-02-02 20:01:00,33.0,32.0,28.84,WNW,295,0.0,-999.0,98,18.79,,,-99.99,,2013-02-03 02:01:00,
2013-02-02 20:11:00,33.0,32.0,28.84,WNW,295,0.0,-999.0,98,18.79,,,-99.99,,2013-02-03 02:11:00,
2013-02-02 20:21:00,37.0,36.0,28.85,NW,322,0.0,-999.0,96,18.79,,,-99.99,,2013-02-03 02:21:00,
2013-02-02 20:32:00,37.0,36.0,28.85,NW,322,0.0,-999.0,96,18.79,,,-99.99,,2013-02-03 02:32:00,
2013-02-02 20:42:00,37.0,36.0,28.85,NW,322,0.0,-999.0,96,18.79,,,-99.99,,2013-02-03 02:42:00,
2013-02-02 20:52:00,37.0,36.0,28.85,North,353,0.0,-999.0,95,18.79,,,-99.99,,2013-02-03 02:52:00,
2013-02-02 21:02:00,37.0,36.0,28.85,North,353,0.0,-999.0,95,18.79,,,-99.99,,2013-02-03 03:02:00,
2013-02-02 21:11:00,39.0,37.0,28.84,NW,323,12.0,-999.0,91,18.79,,,-99.99,,2013-02-03 03:11:00,
2013-02-02 21:21:00,39.0,37.0,28.84,NW,323,12.0,-999.0,91,18.79,,,-99.99,,2013-02-03 03:21:00,
2013-02-02 21:32:00,39.0,37.0,28.84,NW,323,12.0,-999.0,91,18.79,,,-99.99,,2013-02-03 03:32:00,
2013-02-02 21:42:00,39.0,37.0,28.84,NW,323,12.0,-999.0,91,18.79,,,-99.99,,2013-02-03 03:42:00,
2013-02-02 21:52:00,39.0,36.0,28.85,NNW,330,7.0,-999.0,90,18.79,,,-99.99,,2013-02-03 03:52:00,
2013-02-02 22:01:00,39.0,36.0,28.85,NNW,330,7.0,-999.0,90,18.79,,,-99.99,,2013-02-03 04:01:00,
2013-02-02 22:11:00,39.0,36.0,28.86,WNW,288,9.0,-999.0,90,18.79,,,-99.99,,2013-02-03 04:11:00,
2013-02-02 22:21:00,39.0,36.0,28.86,WNW,288,9.0,-999.0,90,18.79,,,-99.99,,2013-02-03 04:21:00,
2013-02-02 22:32:00,39.0,36.0,28.86,WNW,288,9.0,-999.0,90,18.79,,,-99.99,,2013-02-03 04:32:00,
2013-02-02 22:42:00,39.0,36.0,28.86,WNW,288,9.0,-999.0,90,18.79,,,-99.99,,2013-02-03 04:42:00,
2013-02-02 22:52:00,38.0,36.0,28.86,NW,316,7.0,-999.0,91,18.79,,,-99.99,,2013-02-03 04:52:00,
2013-02-02 23:03:00,38.0,36.0,28.86,NW,316,7.0,-999.0,91,18.79,,,-99.99,,2013-02-03 05:03:00,
2013-02-02 23:12:00,38.0,36.0,28.86,NW,316,7.0,-999.0,91,18.79,,,-99.99,,2013-02-03 05:12:00,
2013-02-02 23:22:00,38.0,35.0,28.88,NW,326,9.0,-999.0,90,18.79,,,-99.99,,2013-02-03 05:22:00,
2013-02-02 23:32:00,38.0,35.0,28.88,NW,326,9.0,-999.0,90,18.79,,,-99.99,,2013-02-03 05:32:00,
2013-02-02 23:42:00,38.0,35.0,28.88,NW,326,9.0,-999.0,90,18.79,,,-99.99,,2013-02-03 05:42:00,
2013-02-02 23:52:00,37.0,35.0,28.90,NW,319,8.0,-999.0,91,18.79,,,-99.99,,2013-02-03 05:52:00,